Regional Weather Roundup
Issued by NWS

Home | Current Version | Previous Version | Graphics & Text | Print | Product List | Glossary On
Versions: 1 2 3 4 5 6 7 8 9 10 11 12 13 14 15 16 17 18 19 20 21 22 23 24 25 26 27 28 29 30 31 32 33 34 35 36 37 38 39 40 41 42 43 44 45 46 47 48 49 50
000
ASUS43 KMKX 260600
RWRWI

WISCONSIN REGIONAL WEATHER ROUNDUP
NATIONAL WEATHER SERVICE MILWAUKEE/SULLIVAN WI
100 AM CDT THU MAY 26 2016

NOTE: "FAIR" INDICATES FEW OR NO CLOUDS BELOW 12,000 FEET WITH NO
SIGNIFICANT WEATHER AND/OR OBSTRUCTIONS TO VISIBILITY.

WIZ001-002-006>008-014>016-023>028-260700-
NORTHWEST WISCONSIN

CITY           SKY/WX    TMP DP  RH WIND       PRES   REMARKS
SUPERIOR ARPT  CLOUDY    44  43  98 E7        29.88S
ASHLAND        FOG       48  48 100 CALM      29.85F VSB 1
6HR MIN TEMP:  47; 6HR MAX TEMP:  52; 6HR PCP:  0.30;

HAYWARD        FOG       51  50  96 NE5       29.84F VSB 3/4
6HR MIN TEMP:  50; 6HR MAX TEMP:  55; 6HR PCP:  0.15;

SIREN          CLOUDY    58  57  97 SE5       29.83F FOG
CUMBERLAND     FOG       55  54  94 CALM      29.84F VSB 1/2
RICE LAKE      FOG       57  56  95 CALM      29.86F VSB<1/4
CHETEK         MOCLDY    56  56 100 N5        29.85F FOG
LADYSMITH      FOG       59  58  97 CALM      29.86F VSB 1/2
EAU CLAIRE     FOG       61  58  90 CALM      29.84F VSB 1/2
MENOMONIE      FOG       61  61  99 SE3       29.85F VSB 1/4
NEW RICHMOND   FOG       63  63 100 SE7       29.82F VSB 1
OSCEOLA        CLOUDY    63  63 100 SE8       29.84F FOG
$$

WIZ003>005-009-010-017-018-260700-
NORTH CENTRAL WISCONSIN

CITY           SKY/WX    TMP DP  RH WIND       PRES   REMARKS
MANITOWISH WTR NOT AVBL
ARBOR VITAE    DRIZZLE   60  58  95 CALM      29.83F
WOODRUFF       DRIZZLE   60  58  95 CALM      29.83F
RHINELANDER    CLOUDY    61  59  93 SW9       29.85F
6HR MIN TEMP:  59; 6HR MAX TEMP:  65; 6HR PCP:  0.73;

EAGLE RIVER    DRIZZLE   58  58  99 S5        29.82F
LAND O LAKES   HVY RAIN  59  58  97 SE3       29.85F
PHILLIPS       CLOUDY    61  61 100 S3        29.83F
6HR MIN TEMP:  60; 6HR MAX TEMP:  64; 6HR PCP:  0.64;

TOMAHAWK       CLOUDY    61  60  95 S3        29.85S
MEDFORD        CLOUDY    61  61 100 SW7       29.86F
MERRILL        CLOUDY    63  63 100 SW6       29.86F FOG
$$

WIZ029-030-035-036-043>047-260700-
CENTRAL WISCONSIN

CITY           SKY/WX    TMP DP  RH WIND       PRES   REMARKS
WAUSAU         CLOUDY    64  50  60 S7        29.85S HAZE
6HR MIN TEMP:  63; 6HR MAX TEMP:  65; 6HR PCP:  0.58;

MOSINEE        CLOUDY    61  61 100 CALM      29.88S FOG
MARSHFIELD     FOG       63  61  93 SW7       29.87S VSB 1/2
6HR MIN TEMP:  63; 6HR MAX TEMP:  66; 6HR PCP:  0.04;

STEVENS POINT  FOG       58  58  99 CALM      29.87F VSB 1/2
WAUPACA        FOG       62  61  97 CALM      29.88S VSB 1
6HR MIN TEMP:  62; 6HR MAX TEMP:  66; 6HR PCP:  0.01;

WAUTOMA        FOG       57  57 100 CALM      29.88F VSB 1/4
WISC RAPIDS    FOG       60  58  92 SW5       29.88S VSB 3/4
6HR MIN TEMP:  60; 6HR MAX TEMP:  67; 6HR PCP:  0.24;

CAMP DOUGLAS   NOT AVBL
$$

WIZ011>013-019>022-031-037>040-048>050-260700-
NORTHEAST WISCONSIN

CITY           SKY/WX    TMP DP  RH WIND       PRES   REMARKS
ANTIGO         FOG       58  58 100 S9        29.87F VSB 1
SHAWANO        CLOUDY    61  60  95 SW3       29.87S FOG
6HR MIN TEMP:  60; 6HR MAX TEMP:  64; 6HR PCP:  0.30;

OCONTO         PTCLDY   N/A N/A N/A S5        29.85F
STURGEON BAY   NOT AVBL
GREEN BAY      CLEAR     60  58  92 S7        29.86F FOG
6HR MIN TEMP:  60; 6HR MAX TEMP:  62;

MANITOWOC      NOT AVBL
APPLETON       CLEAR     59  59 100 S5        29.86S FOG
CLINTONVILLE   CLOUDY    59  59 100 S5        29.86F FOG
OSHKOSH        CLEAR     61  60  97 S7        29.87S FOG
6HR MIN TEMP:  58; 6HR MAX TEMP:  63; 6HR PCP:  0.34;

$$

WIZ032>034-041-042-053>061-260700-
SOUTHWEST WISCONSIN

CITY           SKY/WX    TMP DP  RH WIND       PRES   REMARKS
LA CROSSE      MOCLDY    66  64  93 SE5       29.84F
6HR MIN TEMP:  65; 6HR MAX TEMP:  78;

SPARTA         PTCLDY    59  59 100 CALM      29.87F
VIROQUA        CLOUDY    67  62  84 S3        29.89S
BOSCOBEL       FOG       62  61  96 CALM      29.87S VSB 1/2
6HR MIN TEMP:  61; 6HR MAX TEMP:  82;

PRAIRIE DU CHI PTCLDY    65  59  80 CALM      29.86S
PLATTEVILLE    MOCLDY    69  59  69 CALM      29.89F
$$

WIZ056-057-062-063-064-067-068-260700-
SOUTH CENTRAL WISCONSIN

CITY           SKY/WX    TMP DP  RH WIND       PRES   REMARKS
REEDSBURG      FOG       64  64 100 CALM      29.87F VSB 1/4
BARABOO/DELLS  FOG       64  62  94 S5        29.88S VSB 3/4
LONE ROCK      NOT AVBL
MINERAL POINT  MOCLDY    70  57  64 CALM      29.90S
MADISON        CLEAR     67  63  87 S8        29.88S
6HR MIN TEMP:  67; 6HR MAX TEMP:  78;

MIDDLETON      CLEAR     69  63  80 SW7       29.89S
WATERTOWN      CLEAR     64  64 100 S7        29.89S
MONROE         CLOUDY    64  63  94 SE5       29.90S
JANESVILLE     CLEAR     68  64  88 SE8       29.90S
$$

WIZ051-052-058>065-066-070>072-260700-
SOUTHEAST WISCONSIN

CITY           SKY/WX    TMP DP  RH WIND       PRES   REMARKS
MILWAUKEE      PTCLDY    63  61  93 S7        29.90F
6HR MIN TEMP:  53; 6HR MAX TEMP:  63; 6HR PCP:  0.04;

WAUKESHA       MOCLDY    61  61 100 S3        29.92S FOG
MILWAUKEE/TIMM CLEAR     59  55  88 CALM      29.91F FOG
RACINE         MOCLDY    61  60  97 S3        29.92F
6HR MIN TEMP:  56; 6HR MAX TEMP:  64; 6HR PCP:  0.02;

BURLINGTON     CLEAR     61  61  99 SW3       29.91F FOG
KENOSHA        PTCLDY    66  63  90 S9        29.91F
6HR MIN TEMP:  64; 6HR MAX TEMP:  68; 6HR PCP:  0.06;

FOND DU LAC    PTCLDY    63  61  93 S9        29.88F FOG
6HR MIN TEMP:  61; 6HR MAX TEMP:  67; 6HR PCP:  0.28;

SHEBOYGAN      CLOUDY    56  54  93 S5        29.90F FOG
6HR MIN TEMP:  52; 6HR MAX TEMP:  57; 6HR PCP:  0.31;

WEST BEND      CLOUDY    57  55  94 CALM      29.90F FOG
JUNEAU         FOG       61  60  97 CALM      29.90F VSB 1
$$

LSZ147-162-260700-
LAKE SUPERIOR

STATION/POSITION TIME  TEMP    WIND        PRES    WAVE
                       AIR SEA DIR/SP/G            HT/PER
                 (UTC) (F)     (DEG/KT/KT) (MB)    (FT/S)
W MID LAKE BUOY  0450   40 38   60/ 12/ 14 1011.9F   2/ 5
DEVILS ISLAND    0500   42      50/  8/  9 1012.0F
PORT WING        0420   43      70/  3/  6 1011.9S
SAXON HARBOR     0500   47     300/  7/  7 1010.5R
$$

LMZ867-665-643>646-260700-
LAKE MICHIGAN

STATION/POSITION TIME  TEMP    WIND        PRES    WAVE
                       AIR SEA DIR/SP/G            HT/PER
                 (UTC) (F)     (DEG/KT/KT) (MB)    (FT/S)
CHAMBERS ISLAND  0500   58     140/  1/  3 1011.9F
N MID LAKE BUOY  0450   51 45  180/  8/ 10 1013.0R   1/ 3
NORTHPORT PIER   0500   53     150/  5/  8 1012.2F
SISTER BAY       0519   57     150/  9/ 11   N/A
ALGOMA LAKESHORE 0502           70/  9/ 10   N/A
KEWAUNEE LAKESHO 0500   52      30/  2/  5 1011.8F
SHEBOYGAN LAKESH 0500   51     100/  2/  3 1013.4F
PORT WASHINGTON  0500   54     150/  1/  2 1013.5F
S MID LAKE BUOY  0450   55 49  140/ 14/ 16 1012.9F   1/ 3
KENOSHA   LAKESH 0500   58     170/ 11/ 13 1012.9F
$$

TC  - TEMPERATURE IN CELSIUS
VSB - VISIBILITY IN STATUTE MILES
WCI - WIND CHILL INDEX
HX  - HEAT INDEX




USA.gov is the U.S. government's official web portal to all federal, state and local government web resources and services.